Regional Weather Roundup
Issued by NWS

Home | Current Version | Previous Version | Text Only | Print | Product List | Glossary On
Versions: 1 2 3 4 5 6 7 8 9 10 11 12 13 14 15 16 17 18 19 20 21 22 23 24 25 26 27 28 29 30 31 32 33 34 35 36 37 38 39 40 41 42 43 44 45 46 47 48 49 50
000
ASUS43 KFSD 231910
RWRSD

WEATHER ROUNDUP FOR SOUTH DAKOTA
NATIONAL WEATHER SERVICE SIOUX FALLS SD
200 PM CDT MON OCT 23 2017

NOTE: "FAIR" INDICATES FEW OR NO CLOUDS BELOW 12,000 FEET WITH NO
SIGNIFICANT WEATHER AND/OR OBSTRUCTIONS TO VISIBILITY.


SDZ001>005-009-010-012>017-232000-
NORTHWEST AND NORTH CENTRAL SOUTH DAKOTA

CITY           SKY/WX    TMP DP  RH WIND       PRES   REMARKS
BUFFALO          N/A     57  23  26 NW40G53   30.20F
FAITH            N/A     57  28  33 NW33G43   30.21S
MOBRIDGE         N/A     58  34  40 NW24G39     N/A
$$

SDZ012>016-024>037-041>051-057-063-072>074-232000-
SOUTHWEST AND SOUTH CENTRAL SOUTH DAKOTA

CITY           SKY/WX    TMP DP  RH WIND       PRES   REMARKS
RAPID CTY ARPT MOSUNNY   58  22  24 NW38G51   30.30R
PIERRE         PTSUNNY   58  33  39 N30G38    30.15S
CUSTER         MOSUNNY   46  12  25 NW18G31   30.33S
ELLSWORTH AFB  MOSUNNY   57  22  26 NW38G47   30.28S
PHILIP         PTSUNNY   59  28  30 NW30G40   30.23S
PINE RIDGE     MOSUNNY   59  16  18 N24G38    30.30F
SPEARFISH      FAIR      52  21  30 NW28G38   30.34S
WINNER         MOCLDY    60  33  36 NW30G43   30.17S
$$

SDZ004>011-016>023-039-040-232000-
NORTHEAST SOUTH DAKOTA

CITY           SKY/WX    TMP DP  RH WIND       PRES   REMARKS
ABERDEEN       MOSUNNY   54  36  50 NW25G33   30.05S
WATERTOWN      MOSUNNY   52  34  50 NW30G38   29.98F
BROOKINGS      CLOUDY    49  36  61 NW26G33   29.99R
SISSETON         N/A     56  29  35 N33G41    29.95F
$$

SDZ017-020-022-023-036>040-048>070-232000-
SOUTHEAST SOUTH DAKOTA

CITY           SKY/WX    TMP DP  RH WIND       PRES   REMARKS
SIOUX FALLS    CLOUDY    54  35  48 NW30G40   29.98S
HURON          MOSUNNY   57  32  38 NW26G33   30.06S
CHAMBERLAIN    PTSUNNY   58  34  40 NW21G37   30.14S
MITCHELL       MOSUNNY   58  31  35 NW26G40   30.08R
YANKTON        PTSUNNY   57  34  41 NW33G39   30.03S
$$

ABBREVIATIONS USED IN REMARKS
   TC - TEMPERATURE IN CELSIUS
  WCI - WIND CHILL INDEX
   HX - HEAT INDEX
  VSB - VISIBILITY





USA.gov is the U.S. government's official web portal to all federal, state and local government web resources and services.